EHI
0 0 0 0 0 0 0 0 0 0 0 0 0 0 0 0 0 0 1 1 1 0 0 0 0 0 0 0 0 0 0 0 0 0 0 0 0 0 0 0 0 0 0
0 0 0 0 0 0 0 0 0 0 0 0 0 0 0 0 0 0 0 0 0 0 0 0 0 0 0 0 0 0 0 0 0 0 0 0 0 0 0 0 0 0 0
0 0 0 0 0 0 0 0 0 0 0 0 0 0 0 0 0 0 0 0 0 0 0 0 0 0 0 0 0 0 0 0 0 0 0 0 0 0 0 0 0 0 0
0 0 0 0 0 0 0 0 0 0 0 0 0 0 0 0 0 0 0 0 0 0 0 0 0 0 0 0 0 0 0 0 0 0 0 0 0 0 0 0 0 0 0
0 0 0 0 0 0 0 0 0 0 0 0 0 0 0 0 0 0 0 0 0 0 0 0 0 0 0 0 0 0 0 0 0 0 0 0 0 0 0 0 0 0 0
0 0 0 0 0 0 0 0 0 0 0 0 0 0 0 0 0 0 0 0 0 0 0 0 0 0 0 0 0 0 0 0 0 0 0 0 0 0 0 0 0 0 0
0 0 0 0 0 0 0 0 0 0 0 0 0 0 0 0 0 0 0 0 0 0 0 0 0 0 0 0 0 0 0 0 0 0 0 0 0 0 0 0 0 0 0
0 0 0 0 0 0 0 0 0 0 0 0 0 0 0 0 0 0 0 0 0 0 0 0 0 0 0 0 0 0 0 0 0 0 0 0 0 0 0 0 0 0 0
0 0 0 0 0 0 0 0 0 0 0 0 0 0 0 0 0 0 0 0 0 0 0 0 0 0 0 0 0 0 0 0 0 0 0 0 0 0 0 0 0 0 0
0 0 0 0 0 0 0 0 0 0 0 0 0 0 0 0 0 0 0 0 0 0 0 0 0 0 0 0 0 0 0 0 0 0 0 0 0 0 0 0 0 0 0
0 0 0 0 0 0 0 0 0 0 0 0 0 0 0 0 0 0 0 0 0 0 0 0 0 0 0 0 0 0 0 0 0 0 0 0 0 0 0 0 0 0 0
0 0 0 0 0 0 0 0 0 0 0 0 0 0 0 0 0 0 0 0 0 0 0 0 0 0 0 0 0 0 0 0 0 0 0 0 0 0 0 0 0 0 0
0 0 0 0 0 0 0 0 0 0 0 0 0 0 0 0 0 0 0 0 0 0 0 0 0 0 0 0 0 0 0 0 0 0 0 0 0 0 0 0 0 0 0
0 0 0 0 0 0 0 0 0 0 0 0 0 0 0 0 0 0 0 0 0 0 0 0 0 0 0 0 0 0 0 0 0 0 0 0 0 0 0 0 0 0 0
0 0 0 0 0 0 0 0 0 0 0 0 0 0 0 0 0 0 0 0 0 0 0 0 0 0 0 0 0 0 0 0 0 0 0 0 0 0 0 0 0 0 0
0 0 0 0 0 0 0 0 0 0 0 0 0 0 0 0 0 0 0 0 0 0 0 0 0 0 0 0 0 0 0 0 0 0 0 0 0 0 0 0 0 0 0
0 0 0 0 0 0 0 0 0 0 0 0 0 0 0 0 0 0 0 0 0 0 0 0 0 0 0 0 0 0 0 0 0 0 0 0 0 0 0 0 0 0 0
0 0 0 0 0 0 0 0 0 0 0 0 0 0 0 0 0 0 0 0 0 0 0 0 0 0 0 0 0 0 0 0 0 0 0 0 0 0 0 0 0 0 0
0 0 0 0 0 0 0 0 0 0 0 0 0 0 0 0 0 0 0 0 0 0 0 0 0 0 0 0 0 0 0 0 0 0 0 0 0 0 0 0 0 0 0
0 0 0 0 0 0 0 0 0 0 0 0 0 0 0 0 0 0 0 0 0 0 0 0 0 0 0 0 0 0 0 0 0 0 0 0 0 0 0 0 0 0 0
0 0 0 0 0 0 0 0 0 0 0 0 0 0 0 0 0 0 0 0 0 0 0 0 0 0 0 0 0 0 0 0 0 0 0 0 0 0 0 0 0 0 0
0 0 0 0 0 0 0 0 0 0 0 0 0 0 0 0 0 0 0 0 0 0 0 0 0 0 0 0 0 0 0 0 0 0 0 0 0 0 0 0 0 0 0
0 0 0 0 0 0 0 0 0 0 0 0 0 0 0 0 0 0 0 0 0 0 0 0 0 0 0 0 0 0 0 0 0 0 0 0 0 0 0 0 0 0 0
0 0 0 0 0 0 0 0 0 0 0 0 0 0 0 0 0 0 0 0 0 0 0 0 0 0 0 0 0 0 0 0 0 0 0 0 0 0 0 0 0 0 0
0 0 0 0 0 0 0 0 0 0 0 0 0 0 0 0 0 0 0 0 0 0 0 0 0 0 0 0 0 0 0 0 0 0 0 0 0 0 0 0 0 0 0
0 0 0 0 0 0 0 0 0 0 0 0 0 0 0 0 0 0 0 0 0 0 0 0 0 0 0 0 0 0 0 0 0 0 0 0 0 0 0 0 0 0 0
Wind_Speed
6 6 6 6 6 6 5 6 6 5 6 5 5 5 4 3 2 1 1 1 1 1 1 2 3 2 3 3 3 3 3 3 3 1 1 1 2 3 3 3 3 4 4
5 5 6 6 6 6 7 7 6 6 6 6 5 5 4 4 3 1 1 0 1 2 2 2 2 3 3 3 3 4 3 3 3 3 1 1 2 3 3 4 3 4 4
4 5 6 6 7 7 7 7 7 6 6 6 6 5 4 4 3 2 1 0 0 2 2 3 3 3 3 3 4 4 3 3 3 3 2 1 2 2 3 4 5 4 4
3 4 5 6 6 6 6 6 7 6 6 7 6 5 5 4 4 3 2 1 1 1 1 1 2 3 3 3 4 4 4 4 4 4 3 2 2 3 4 4 4 3 4
3 4 5 5 5 6 6 7 7 7 7 6 7 7 6 4 4 4 3 2 2 2 2 1 1 1 2 3 3 4 5 4 4 4 4 3 3 4 4 3 5 5 4
2 3 4 5 5 6 6 6 7 7 7 7 7 7 7 6 8 8 5 3 2 2 2 2 1 1 1 2 3 4 6 6 6 4 3 4 4 4 4 5 5 5 3
2 3 4 4 5 5 5 6 6 6 7 7 7 7 7 7 9 10 10 5 4 3 2 2 2 3 3 3 4 4 3 4 5 5 5 4 5 5 6 6 5 4 4
2 3 3 4 4 5 5 5 5 4 5 5 6 7 7 8 12 11 10 6 5 4 4 3 3 3 2 3 4 4 4 3 2 3 4 4 4 5 6 6 6 6 6
2 3 3 3 3 4 5 5 4 4 5 5 5 7 7 8 12 11 9 4 5 5 5 4 4 3 5 6 5 5 5 4 5 7 7 7 9 9 9 7 7 7 5
3 3 2 2 2 3 3 3 3 3 3 4 5 6 6 7 11 12 9 4 4 4 5 5 7 6 6 6 4 4 5 4 4 6 7 7 6 7 8 6 7 7 5
3 2 2 2 2 2 2 2 3 3 3 4 4 5 5 7 9 11 10 4 3 4 4 4 4 7 8 8 6 4 5 5 5 6 5 5 5 4 4 4 3 4 4
2 2 2 2 2 1 1 2 2 3 3 3 4 4 4 5 7 8 10 8 5 3 3 3 3 7 8 8 6 7 8 7 4 5 5 4 4 4 4 5 6 6 4
3 3 3 2 1 1 1 1 2 2 2 2 3 3 4 4 5 9 10 9 8 4 3 5 7 8 8 6 8 9 6 4 4 5 5 3 3 3 4 4 5 6 8
5 4 3 2 2 1 1 1 1 1 1 1 2 2 3 3 3 4 4 4 5 4 3 5 8 9 6 6 6 5 4 3 4 4 3 3 3 3 3 3 3 3 4
5 5 4 3 3 2 2 2 3 3 3 2 2 1 1 2 3 4 2 2 2 1 2 3 3 3 3 3 3 3 3 3 4 3 3 3 3 3 3 2 2 3 3
6 5 4 4 3 3 3 3 4 6 6 6 6 4 3 4 4 3 3 3 2 2 3 2 2 2 2 2 2 2 2 2 2 2 3 3 3 3 3 2 3 3 4
8 6 5 4 4 4 3 3 3 3 4 6 7 7 7 5 4 2 2 2 2 2 2 1 1 1 0 0 1 1 1 1 1 2 2 3 3 3 3 3 3 3 3
8 9 7 5 5 5 5 4 4 3 3 3 4 6 7 7 5 4 2 0 1 1 1 1 1 1 1 1 1 1 1 1 1 1 2 2 2 3 3 3 3 3 3
8 6 6 5 5 5 5 4 4 4 4 4 3 3 5 5 5 5 3 2 2 2 2 2 2 2 2 2 2 2 2 2 2 2 2 2 3 3 3 3 3 4 3
8 12 10 6 5 5 5 5 5 5 5 4 5 4 2 2 2 3 3 3 3 4 3 3 3 3 3 3 3 3 2 2 2 2 2 3 3 3 3 4 4 4 3
7 8 12 7 6 6 6 6 6 6 6 6 6 6 8 5 5 5 5 5 5 5 5 5 4 4 4 3 3 4 4 3 3 3 3 3 3 3 3 3 4 4 3
7 7 7 8 7 7 7 7 6 6 7 7 6 5 9 6 5 5 5 6 6 6 5 5 5 5 5 5 5 5 5 4 4 4 4 4 3 3 3 3 4 4 4
6 7 7 7 7 9 8 7 7 7 7 7 6 5 5 6 6 6 7 6 6 6 5 5 6 5 5 5 5 6 6 6 6 6 5 5 4 4 4 4 5 4 5
7 8 8 8 7 7 7 8 8 8 8 7 7 6 7 7 7 8 7 6 6 6 6 6 7 8 9 7 6 6 6 6 6 6 8 6 6 5 4 4 5 5 5
7 7 8 8 8 8 8 8 8 8 8 8 7 7 7 7 7 7 7 6 7 7 8 8 7 8 11 11 9 8 10 12 10 7 6 6 6 6 6 5 5 4 5
6 7 7 6 7 7 8 8 8 9 8 8 8 7 7 7 7 7 7 6 6 7 7 7 9 11 11 10 12 13 14 14 14 12 7 6 7 6 6 5 6 5 5
Wind_Direction
346 345 350 347 348 351 354 349 345 345 346 344 341 339 338 335 328 303 251 241 206 196 192 183 190 185 186 184 180 178 185 171 174 176 164 138 147 154 148 144 139 135 136
340 345 349 347 351 357 354 349 349 347 346 346 345 343 343 340 335 335 279 223 202 196 192 182 194 191 192 188 184 185 184 173 161 166 161 150 145 149 142 136 130 131 126
345 350 352 352 353 353 349 346 349 350 352 354 356 357 353 349 351 352 351 58 233 204 187 185 193 187 199 199 188 185 181 177 161 159 158 142 128 132 129 120 116 112 121
349 352 352 348 346 345 345 348 351 354 1 359 358 358 359 360 4 9 24 48 33 26 166 192 201 198 202 197 192 189 181 173 162 155 152 147 140 138 138 135 126 109 105
350 349 343 339 343 350 354 354 356 5 7 1 4 5 3 3 12 16 30 49 45 38 32 14 255 222 215 198 186 182 177 169 160 160 161 156 158 159 155 142 133 120 97
345 336 338 345 350 355 355 357 4 7 7 11 11 8 8 8 18 35 47 47 48 40 21 3 6 44 79 132 153 162 171 169 168 165 168 170 167 155 142 145 141 140 129
333 334 343 347 350 349 355 6 9 7 10 13 11 11 6 2 27 43 46 47 41 32 27 26 35 45 60 78 86 98 111 137 160 162 165 171 164 160 151 150 148 133 126
324 329 337 345 344 347 360 6 4 3 8 9 9 7 11 16 31 41 42 44 45 36 30 34 48 39 66 89 90 80 71 71 127 151 153 158 151 149 151 143 133 112 96
297 305 317 333 341 349 355 353 355 6 10 10 8 11 12 9 23 34 36 35 40 31 26 32 44 52 72 89 96 95 82 65 75 99 110 118 125 130 136 132 134 132 123
261 274 295 313 329 338 338 340 347 1 5 8 14 12 12 8 14 27 31 37 39 30 26 26 36 49 65 76 89 100 93 75 81 85 85 86 99 114 123 141 148 144 132
247 265 293 304 300 308 332 343 350 3 15 16 12 7 10 7 10 21 31 39 36 34 30 18 21 46 61 67 69 83 96 97 92 95 92 86 81 81 80 83 104 137 138
221 246 275 292 306 328 344 344 358 11 19 11 7 2 2 360 6 15 29 37 40 49 33 10 24 54 64 66 71 82 89 90 89 91 90 87 88 84 81 81 81 73 68
210 233 254 273 288 305 311 330 347 4 12 359 3 356 345 349 358 14 23 28 33 46 36 39 51 59 62 65 68 73 76 79 87 91 92 84 79 92 96 91 81 78 70
214 228 235 243 259 266 261 250 253 280 309 328 338 335 334 340 348 353 359 8 20 34 36 44 54 57 58 61 59 54 53 72 92 95 94 86 83 86 84 90 101 95 83
215 223 225 227 232 242 244 235 231 234 214 218 236 243 278 313 307 325 348 350 351 6 46 44 38 39 43 42 47 50 51 65 76 81 97 98 95 92 80 73 93 91 97
212 220 218 218 222 224 239 271 250 239 250 238 225 214 230 245 280 317 345 350 3 66 77 64 52 51 55 55 65 53 51 66 76 95 102 107 112 110 99 78 81 99 110
209 213 210 211 213 215 215 227 265 283 264 253 244 234 230 241 255 276 322 358 24 80 86 108 132 134 123 112 104 96 91 81 94 109 115 119 118 114 113 112 109 107 111
211 215 209 209 210 211 213 213 217 235 267 279 262 245 239 236 234 237 246 67 16 47 163 196 202 196 188 182 176 163 139 114 108 125 130 134 134 130 131 136 138 137 136
208 213 211 208 207 208 210 210 213 220 231 249 269 272 244 232 229 232 203 183 212 223 215 215 213 205 202 196 188 178 168 165 163 157 160 161 155 145 149 155 153 152 144
214 217 206 204 205 205 205 208 214 218 225 233 241 242 211 178 209 220 206 207 213 221 217 215 215 209 203 199 190 180 176 178 178 178 181 179 171 165 168 170 167 164 169
213 217 212 204 206 206 206 210 213 214 220 227 235 229 197 199 218 219 213 212 215 218 216 213 211 207 204 196 190 189 189 191 190 188 187 184 175 174 175 172 173 171 163
214 210 204 207 209 209 210 211 209 213 220 228 237 236 216 209 219 222 222 223 220 216 209 202 206 206 201 197 193 191 194 197 196 190 188 183 177 175 169 170 171 171 172
220 215 211 212 209 212 212 211 211 215 220 224 226 223 210 212 221 224 228 227 219 214 207 201 206 211 208 203 198 192 195 201 199 188 183 183 181 179 175 179 180 176 186
226 222 219 216 211 210 212 215 215 216 219 222 222 221 219 217 219 224 225 223 218 215 206 202 208 213 208 202 201 201 204 202 190 188 185 183 184 183 180 183 187 189 191
233 229 224 219 215 215 216 218 218 217 219 220 221 221 220 218 220 224 223 218 215 216 213 207 209 213 212 207 202 204 206 203 196 186 182 182 185 185 183 184 185 186 188
247 239 234 227 221 218 217 219 221 220 220 221 220 218 217 217 219 221 218 214 214 217 216 211 211 211 210 209 209 207 205 204 202 194 181 181 186 189 185 190 191 188 188